Location: Unspecified
(49.8670°N, 0.0000°E)
Time: 11:24:47
(UTC+00:00)

S-56A Canister/Altair - Pass Details

Date: 19 June 2019
Orbit: 633 x 2499 km, 38.9° (Epoch: 17 August)

Event Time Altitude Azimuth Distance (km) Brightness Sun altitude
Rises 15:11:35 0° 201° (SSW) 4,980 12.1 44.7°
Reaches altitude 10° 15:17:26 10° 178° (S) 3,520 11.2 43.8°
Maximum altitude 15:21:00 13° 153° (SSE) 2,980 10.6 43.2°
Drops below altitude 10° 15:24:06 10° 127° (SE) 2,954 10.3 42.7°
Sets 15:28:06 0° 101° (E) 3,575 10.5 42.1°
